Location: Cahas Mountain Overlook
(37.0833°N, 80.1000°W)
Time: 10:34:04
(UTC-04:00)

A-11 Canister half - Pass Details

Date: 12 February 2026
Orbit: 1524 x 1683 km, 47.3° (Epoch: 16 March)

Event Time Altitude Azimuth Distance (km) Brightness Sun altitude
Rises 22:15:18 0° 295° (WNW) 4,673 12.2 -51.0°
Reaches altitude 10° 22:18:28 10° 300° (WNW) 3,692 11.4 -51.5°
Enters shadow 22:22:34 28° 314° (NW) 2,549 10.3 -52.2°
